When you browse on this site, cookies collect data to enhance your experience and personalize the content and advertising you see.
Visit our Privacy Policy to learn more. By continuing to use the site, you agree to this use of cookies and data.
  • In Hungary
  • List of Countries
  • For 7 days
  • Water Temperature
  • Weather Map
  • News
  • Weather Widgets
  • user-avatar
    Login

    Hourly Weather Surtan-Uzyak

    Today, 26 February, Wednesday

    Time Temperature Precipitation Wind Pressure Humidity
    00:00 -3°C° 0.5 mm 6 mps 712 mmHg 97%
    01:00 -3°C° 0.5 mm 7 mps 711 mmHg 98%
    02:00 -4°C° 0.9 mm 5 mps 710 mmHg 98%
    03:00 -3°C° 0.9 mm 4 mps 709 mmHg 98%
    04:00 -2°C° 0.9 mm 3 mps 708 mmHg 98%
    05:00 -2°C° 1.2 mm 2 mps 707 mmHg 98%
    06:00 0°C° 1.2 mm 1 mps 707 mmHg 98%
    07:00 -1°C° 1.2 mm 0 mps 706 mmHg 98%
    08:00 -2°C° 1 mm 2 mps 706 mmHg 98%
    09:00 -1°C° 1 mm 3 mps 706 mmHg 98%
    10:00 -2°C° 1 mm 4 mps 705 mmHg 98%
    11:00 -3°C° 0.3 mm 6 mps 705 mmHg 97%
    12:00 -3°C° 0.3 mm 7 mps 706 mmHg 96%
    13:00 -4°C° 0.3 mm 8 mps 706 mmHg 95%
    14:00 -4°C° 0.1 mm 8 mps 706 mmHg 93%
    15:00 -5°C° 0.1 mm 9 mps 707 mmHg 90%
    16:00 -5°C° 0.1 mm 9 mps 707 mmHg 87%
    17:00 -5°C° 0 mm 10 mps 708 mmHg 86%
    18:00 -7°C° 0 mm 10 mps 709 mmHg 85%
    19:00 -7°C° 0 mm 10 mps 710 mmHg 84%
    20:00 -8°C° 0 mm 10 mps 711 mmHg 84%
    21:00 -9°C° 0 mm 10 mps 713 mmHg 84%
    22:00 -10°C° 0 mm 9 mps 714 mmHg 84%
    23:00 -10°C° 0 mm 9 mps 715 mmHg 84%

    Tomorrow, 27 February, Thursday

    Time Temperature Precipitation Wind Pressure Humidity
    00:00 -11°C° 0 mm 9 mps 715 mmHg 84%
    01:00 -12°C° 0 mm 8 mps 716 mmHg 84%
    02:00 -12°C° 0 mm 8 mps 718 mmHg 85%
    03:00 -12°C° 0 mm 8 mps 719 mmHg 85%
    04:00 -13°C° 0 mm 7 mps 720 mmHg 86%
    05:00 -13°C° 0 mm 7 mps 720 mmHg 86%
    06:00 -13°C° 0 mm 7 mps 721 mmHg 87%
    07:00 -12°C° 0 mm 6 mps 722 mmHg 87%
    08:00 -11°C° 0 mm 6 mps 722 mmHg 85%
    09:00 -10°C° 0 mm 6 mps 723 mmHg 82%
    10:00 -9°C° 0 mm 6 mps 724 mmHg 80%
    11:00 -6°C° 0 mm 6 mps 724 mmHg 83%
    12:00 -5°C° 0 mm 6 mps 724 mmHg 87%
    13:00 -4°C° 0 mm 7 mps 724 mmHg 90%
    14:00 -3°C° 0 mm 7 mps 725 mmHg 89%
    15:00 -3°C° 0 mm 7 mps 725 mmHg 89%
    16:00 -2°C° 0 mm 7 mps 725 mmHg 88%
    17:00 -3°C° 0 mm 7 mps 725 mmHg 88%
    18:00 -4°C° 0 mm 7 mps 725 mmHg 88%
    19:00 -6°C° 0 mm 7 mps 726 mmHg 88%
    20:00 -5°C° 0 mm 6 mps 726 mmHg 86%
    21:00 -5°C° 0 mm 6 mps 726 mmHg 85%
    22:00 -6°C° 0 mm 5 mps 726 mmHg 83%
    23:00 -6°C° 0 mm 6 mps 726 mmHg 80%

    Day after tomorrow, 28 February, Friday

    Time Temperature Precipitation Wind Pressure Humidity
    00:00 -5°C° 0 mm 6 mps 726 mmHg 78%
    01:00 -5°C° 0 mm 6 mps 727 mmHg 75%
    02:00 -5°C° 0 mm 6 mps 727 mmHg 75%
    03:00 -6°C° 0 mm 5 mps 727 mmHg 75%
    04:00 -6°C° 0 mm 5 mps 726 mmHg 75%
    05:00 -6°C° 0 mm 5 mps 726 mmHg 75%
    06:00 -6°C° 0 mm 5 mps 726 mmHg 75%
    07:00 -7°C° 0 mm 5 mps 726 mmHg 75%
    08:00 -6°C° 0 mm 5 mps 727 mmHg 74%
    09:00 -5°C° 0 mm 5 mps 727 mmHg 74%
    10:00 -4°C° 0 mm 5 mps 727 mmHg 73%
    11:00 -2°C° 0 mm 5 mps 727 mmHg 74%
    12:00 -2°C° 0 mm 5 mps 727 mmHg 74%
    13:00 -3°C° 0 mm 6 mps 727 mmHg 75%
    14:00 -2°C° 0 mm 5 mps 727 mmHg 77%
    15:00 -2°C° 0 mm 5 mps 727 mmHg 79%
    16:00 -2°C° 0 mm 4 mps 727 mmHg 81%
    17:00 -3°C° 0 mm 4 mps 727 mmHg 83%
    18:00 -4°C° 0 mm 4 mps 727 mmHg 85%
    19:00 -4°C° 0 mm 4 mps 727 mmHg 87%
    20:00 -5°C° 0 mm 3 mps 727 mmHg 87%
    21:00 -6°C° 0 mm 3 mps 726 mmHg 88%
    22:00 -6°C° 0 mm 3 mps 726 mmHg 88%
    23:00 -7°C° 0 mm 4 mps 726 mmHg 87%

    29 February, Saturday

    Time Temperature Precipitation Wind Pressure Humidity
    00:00 -7°C° 0 mm 4 mps 726 mmHg 87%
    01:00 -7°C° 0 mm 4 mps 726 mmHg 86%
    02:00 -8°C° 0 mm 4 mps 725 mmHg 86%
    03:00 -9°C° 0 mm 4 mps 725 mmHg 86%
    04:00 -9°C° 0 mm 4 mps 724 mmHg 86%
    05:00 -10°C° 0 mm 4 mps 724 mmHg 86%
    06:00 -10°C° 0 mm 4 mps 723 mmHg 87%
    07:00 -11°C° 0 mm 4 mps 723 mmHg 88%
    08:00 -11°C° 0 mm 5 mps 723 mmHg 87%
    09:00 -11°C° 0 mm 5 mps 722 mmHg 87%
    10:00 -11°C° 0 mm 5 mps 722 mmHg 86%
    11:00 -10°C° 0 mm 6 mps 721 mmHg 86%
    12:00 -9°C° 0 mm 6 mps 721 mmHg 86%
    13:00 -8°C° 0 mm 6 mps 721 mmHg 86%
    14:00 -6°C° 0 mm 6 mps 721 mmHg 88%
    15:00 -6°C° 0 mm 5 mps 720 mmHg 89%
    16:00 -6°C° 0 mm 5 mps 720 mmHg 91%
    17:00 -6°C° 0 mm 5 mps 720 mmHg 92%
    18:00 -7°C° 0 mm 4 mps 720 mmHg 93%
    19:00 -7°C° 0 mm 3 mps 720 mmHg 94%
    20:00 -7°C° 0 mm 3 mps 720 mmHg 95%
    21:00 -7°C° 0 mm 3 mps 721 mmHg 95%
    22:00 -6°C° 0 mm 3 mps 721 mmHg 96%
    23:00 -6°C° 0 mm 2 mps 721 mmHg 96%

    1 March, Sunday

    Time Temperature Precipitation Wind Pressure Humidity
    00:00 -6°C° 0 mm 2 mps 721 mmHg 96%
    01:00 -6°C° 0 mm 2 mps 721 mmHg 97%
    02:00 -4°C° 0 mm 1 mps 721 mmHg 97%
    03:00 -3°C° 0 mm 1 mps 721 mmHg 97%
    04:00 -3°C° 0 mm 1 mps 722 mmHg 97%
    05:00 -2°C° 0 mm 1 mps 722 mmHg 97%
    06:00 -2°C° 0 mm 1 mps 722 mmHg 97%
    07:00 -2°C° 0 mm 1 mps 722 mmHg 97%
    08:00 -2°C° 0 mm 0 mps 722 mmHg 97%
    09:00 -1°C° 0 mm 0 mps 723 mmHg 97%
    10:00 -1°C° 0 mm 0 mps 723 mmHg 96%
    11:00 -1°C° 0 mm 0 mps 723 mmHg 97%
    12:00 0°C° 0 mm 0 mps 723 mmHg 98%
    13:00 0°C° 0 mm 0 mps 723 mmHg 99%
    14:00 0°C° 0 mm 0 mps 723 mmHg 99%
    15:00 +1°C° 0 mm 1 mps 723 mmHg 99%
    16:00 +1°C° 0 mm 1 mps 722 mmHg 99%
    17:00 0°C° 0 mm 1 mps 723 mmHg 98%
    18:00 -1°C° 0 mm 0 mps 723 mmHg 96%
    19:00 -1°C° 0 mm 0 mps 723 mmHg 95%
    20:00 -2°C° 0 mm 0 mps 723 mmHg 94%
    21:00 -2°C° 0 mm 1 mps 723 mmHg 93%
    22:00 -2°C° 0 mm 1 mps 723 mmHg 92%
    23:00 -2°C° 0 mm 1 mps 723 mmHg 93%

    2 March, Monday

    Time Temperature Precipitation Wind Pressure Humidity
    00:00 -2°C° 0 mm 1 mps 723 mmHg 94%
    01:00 -4°C° 0 mm 2 mps 723 mmHg 95%
    02:00 -4°C° 0 mm 2 mps 723 mmHg 95%
    03:00 -4°C° 0 mm 2 mps 723 mmHg 96%
    04:00 -4°C° 0 mm 2 mps 723 mmHg 96%
    05:00 -4°C° 0 mm 2 mps 723 mmHg 96%
    06:00 -4°C° 0 mm 2 mps 724 mmHg 95%
    07:00 -5°C° 0 mm 2 mps 724 mmHg 95%
    08:00 -5°C° 0 mm 3 mps 724 mmHg 95%
    09:00 -5°C° 0 mm 3 mps 724 mmHg 94%
    10:00 -4°C° 0 mm 4 mps 725 mmHg 94%
    11:00 -4°C° 0 mm 4 mps 725 mmHg 94%
    12:00 -4°C° 0 mm 4 mps 725 mmHg 93%
    13:00 -4°C° 0 mm 4 mps 725 mmHg 93%
    14:00 -4°C° 0 mm 4 mps 725 mmHg 93%
    15:00 -4°C° 0 mm 3 mps 725 mmHg 94%
    16:00 -5°C° 0 mm 3 mps 725 mmHg 94%
    17:00 -5°C° 0 mm 3 mps 725 mmHg 94%
    18:00 -5°C° 0 mm 3 mps 726 mmHg 94%
    19:00 -5°C° 0 mm 3 mps 726 mmHg 94%
    20:00 -5°C° 0 mm 3 mps 726 mmHg 94%
    21:00 -5°C° 0 mm 3 mps 726 mmHg 94%
    22:00 -5°C° 0 mm 3 mps 726 mmHg 95%
    23:00 -5°C° 0 mm 3 mps 726 mmHg 95%
    Show more